Regional Weather Roundup
Issued by NWS

Home | Current Version | Previous Version | Text Only | Print | Product List | Glossary On
Versions: 1 2 3 4 5 6 7 8 9 10 11 12 13 14 15 16 17 18 19 20 21 22 23 24 25 26 27 28 29 30 31 32 33 34 35 36 37 38 39 40 41 42 43 44 45 46 47 48 49 50
557
ASUS45 KTFX 250710
RWRMT
MONTANA REGIONAL WEATHER ROUNDUP
NATIONAL WEATHER SERVICE GREAT FALLS MT
100 AM MDT SUN JUN 25 2017

NOTE: "FAIR" INDICATES FEW OR NO CLOUDS BELOW 12000 FEET WITH NO
SIGNIFICANT WEATHER AND/OR OBSTRUCTIONS TO VISIBILITY.

MTZ001>007-043-250800-
WEST OF THE DIVIDE

CITY           SKY/WX    TMP DP  RH WIND       PRES   REMARKS
KALISPELL      CLEAR     53  47  79 CALM      30.22R
MISSOULA       CLEAR     56  40  55 CALM      30.24R
BUTTE          CLEAR     51  37  58 S8        30.36R
MULLAN PASS    CLEAR     60  29  30 CALM      30.36R
ANACONDA         N/A     52  37  58 SW5       30.35R
DEER LODGE       N/A     54  37  54 W7        30.35S
EUREKA           N/A     54  43  66 MISG      30.20S
HAMILTON         N/A     55  43  62 S3        30.25R
$$

MTZ008-052>055-250800-
SOUTHWEST MONTANA

CITY           SKY/WX    TMP DP  RH WIND       PRES   REMARKS
BOZEMAN        CLEAR     52  40  63 NW6       30.32R
DILLON         CLEAR     51  37  58 SE8       30.32R
W YELLOWSTONE  CLEAR     41  34  75 S8        30.41R
ENNIS          CLEAR     50  37  62 S5        30.38R
THREE FORKS      N/A     52  42  68 CALM      30.28R
$$

MTZ009-010-012-014-046-048-049-054-250800-
EAST SLOPES AND CENTRAL MONTANA

CITY           SKY/WX    TMP DP  RH WIND       PRES   REMARKS
CUT BANK       CLEAR     52  42  69 S5        30.33F
GREAT FALLS    PTCLDY    55  42  61 CALM      30.33F
MALMSTROM AFB  MOCLDY    53  44  73 E5        30.33S
HELENA         CLEAR     61  39  44 W8        30.32S
CHOTEAU          N/A     52  45  76 SW5       30.37S
$$

MTZ011-013-016-021-045-047-050-051-250800-
NORTH CENTRAL MONTANA

CITY           SKY/WX    TMP DP  RH WIND       PRES   REMARKS
HAVRE          CLEAR     46  39  76 S6        30.31S
LEWISTOWN      CLEAR     51  40  65 SE3       30.36S
N BAR RANCH      N/A     46  36  66 W5        30.40S
CHINOOK          N/A     48  41  76 CALM      30.30F
FORT BENTON      N/A     55  39  54 CALM      30.34S
$$

MTZ017>020-022>027-061-062-250800-
NORTHEAST MONTANA

CITY           SKY/WX    TMP DP  RH WIND       PRES   REMARKS
GLASGOW        PTCLDY    52  35  52 E8        30.27S
JORDAN           N/A     50  29  44 NW10      30.29F
SIDNEY         CLEAR     46  37  71 S6        30.28S
WOLF POINT     CLEAR     45  33  63 W6        30.27S
MALTA          CLEAR     50  39  66 CALM      30.28S
PLENTYWOOD       N/A     54  34  47 CALM      30.25F
POPLAR           N/A     54  36  50 CALM      30.27F
$$

MTZ028>42-056>058-250800-
SOUTHCENTRAL AND SOUTHEAST MONTANA

CITY           SKY/WX    TMP DP  RH WIND       PRES   REMARKS
BAKER          CLEAR     42  30  62 S8        30.34S
LIVINGSTON     CLEAR     53  37  54 E9        30.35R
MILES CITY     CLEAR     53  31  42 SE9       30.31S
BIG TIMBER     CLEAR     52  37  58 NE7       30.40S
FORSYTH          N/A     55  30  38 CALM      30.30F
ROUNDUP          N/A     60  32  34 SW3       30.23S
$$

REGIONAL REPORTS...DAKOTAS

CITY           SKY/WX    TMP DP  RH WIND       PRES   REMARKS
WILLISTON      MOCLDY    50  40  68 CALM      30.26F
MINOT          CLOUDY    49  39  68 SW9       30.24S
DICKINSON      CLEAR     40  32  73 S7        30.29S
BEACH            N/A     43  34  70 S9        30.34S
CROSBY         MOCLDY    48  46  93 CALM      30.26S
TIOGA          MOCLDY    45  43  93 CALM      30.27S
WATFORD CITY     N/A     41  37  87 SW5       30.26F HAZE
BISMARCK       CLEAR     43  39  86 SW3       30.29F
GRAND FORKS    CLEAR     45  43  93 W6        30.18S
FARGO          CLOUDY    54  44  69 NW12      30.18S
BUFFALO SD       N/A     50  32  50 CALM      30.29S
RAPID CITY     PTCLDY    44  32  62 W3        30.38S
$$

REGIONAL REPORTS...WYOMING/IDAHO/WASHINGTON

CITY           SKY/WX    TMP DP  RH WIND       PRES   REMARKS
GILLETTE       PTCLDY    44  34  67 CALM      30.37F
SHERIDAN       CLOUDY    50  40  68 S3        30.35F
BUFFALO WY     MOCLDY    55  37  50 SW5       30.40F
CODY           CLEAR     53  35  50 SW3       30.38F
YELLOWSTONE LA   N/A     39  33  79 CALM      30.48R
IDAHO FALLS    CLEAR     54  48  80 N5        30.25R
SALMON         CLEAR     55  37  50 CALM      30.25R
BOISE          CLEAR     66  42  41 SE5       30.09S
SPOKANE        CLEAR     67  40  37 W3        30.14S
$$

REGIONAL REPORTS...ALBERTA

CITY           SKY/WX    TMP DP  RH WIND       PRES   REMARKS
EDMONTON       CLEAR     52  48  87 S2        30.25R
CALGARY        PTCLDY    55  43  62 S7        30.30F
LETHBRIDGE     PTCLDY    48  46  93 SW6       30.30S
MEDICINE HAT   PTCLDY    50  46  87 SW2       30.28S
WATERTON GATE    N/A     43  41  93 N2          N/A
$$

REGIONAL REPORTS...SASKATCHEWAN

CITY           SKY/WX    TMP DP  RH WIND       PRES   REMARKS
SWIFT CURRENT  MOCLDY    50  46  87 W8        30.27F
REGINA         MOCLDY    46  43  87 N3        30.25S
SASKATOON      PTCLDY    50  48  93 NW5       30.26R
CYPRESS HILLS    N/A     48  37  66 NW3         N/A
ROCKGLEN         N/A     50  37  62 NW2         N/A
ASSINIBOIA       N/A     52  48  87 S7          N/A
$$




USA.gov is the U.S. government's official web portal to all federal, state and local government web resources and services.